Weather History for KTPA - March, 2012

Change the Weather History Date:

Thursday, March 1, 2012

  Actual Average Record
Temperature  
Mean Temperature 75 °F 65 °F  
Max Temperature 81 °F 74 °F 88 °F (1997)
Min Temperature 68 °F 56 °F 36 °F (1968)
Degree Days  
Heating Degree Days 0 3  
Month to date heating degree days 0 3  
Since 1 July heating degree days 205 474  
Cooling Degree Days 10 3  
Month to date cooling degree days 10 3  
Year to date cooling degree days 200 116  
Growing Degree Days 24 (Base 50)    
Moisture  
Dew Point 67 °F    
Average Humidity 80    
Maximum Humidity 97    
Minimum Humidity 62    
Precipitation  
Precipitation 0.00 in 0.09 in 1.20 in (1947)
Month to date precipitation 0.00 0.09  
Year to date precipitation 2.97 5.13  
Sea Level Pressure  
Sea Level Pressure 30.09 in    
Wind  
Wind Speed 5 mph (SW)    
Max Wind Speed 14 mph    
Max Gust Speed 17 mph    
Visibility 9 miles    
Events      
T = Trace of Precipitation, MM = Missing Value Source: NWS Daily Summary

Daily Weather History Graph

Daily Weather History Graph

Search for Another Location

Airport or City:

Trip Planner

Search our weather history database for the weather conditions in past years. The results will help you decide how hot, cold, wet, or windy it might be!

Date:

Astronomy

Mar. 01, 2012 Rise Set
Actual Time 6:54 AM EST 6:30 PM EST
Civil Twilight 6:30 AM EST 6:54 PM EST
Nautical Twilight 6:03 AM EST 7:21 PM EST
Astronomical Twilight 5:36 AM EST 7:48 PM EST
Moon 12:12 PM EST (3/1) 1:29 AM EST (3/1)
Length of Visible Light 12h 23m
Length of Day
11h 36m
First Quarter, 56% of the Moon is Illuminated
Mar 1
First Quarter
Mar 8
Full
Mar 14
Last Quarter
Mar 22
New
Mar 30
First Quarter

Hourly Weather History & Observations

Time (EST) Temp. Heat Index Dew Point Humidity Pressure Visibility Wind Dir Wind Speed Gust Speed Precip Events Conditions
12:16 AM 69.8 °F - 66.2 °F 88% 30.12 in 10.0 mi Calm Calm - N/A   Partly Cloudy
12:53 AM 69.1 °F - 66.9 °F 93% 30.11 in 10.0 mi Calm Calm - N/A   Partly Cloudy
1:53 AM 68.0 °F - 66.0 °F 93% 30.11 in 10.0 mi Calm Calm - N/A   Scattered Clouds
2:21 AM 68.0 °F - 66.2 °F 94% 30.11 in 10.0 mi Calm Calm - N/A   Mostly Cloudy
2:53 AM 69.8 °F - 66.2 °F 88% 30.10 in 10.0 mi Calm Calm - N/A   Mostly Cloudy
3:53 AM 69.1 °F - 66.0 °F 90% 30.10 in 10.0 mi Calm Calm - N/A   Overcast
4:53 AM 70.0 °F - 66.9 °F 90% 30.10 in 7.0 mi South 4.6 mph - N/A   Overcast
5:53 AM 69.8 °F - 66.2 °F 88% 30.10 in 7.0 mi South 3.5 mph - N/A   Mostly Cloudy
6:53 AM 69.1 °F - 66.9 °F 93% 30.11 in 9.0 mi SSW 3.5 mph - N/A   Mostly Cloudy
7:53 AM 69.1 °F - 66.9 °F 93% 30.12 in 7.0 mi South 6.9 mph - N/A   Mostly Cloudy
8:53 AM 70.0 °F - 68.0 °F 93% 30.12 in 5.0 mi SSW 8.1 mph - N/A   Mostly Cloudy
9:01 AM 69.8 °F - 68.0 °F 94% 30.13 in 0.2 mi SSW 8.1 mph - N/A   Mostly Cloudy
9:46 AM 69.8 °F - 68.0 °F 94% 30.14 in 1.0 mi Variable 3.5 mph - N/A   Mostly Cloudy
9:53 AM 70.0 °F - 68.0 °F 93% 30.14 in 4.0 mi SSW 4.6 mph - N/A   Mostly Cloudy
10:07 AM 71.6 °F - 68.0 °F 88% 30.14 in 9.0 mi Calm Calm - N/A   Scattered Clouds
10:53 AM 73.9 °F - 68.0 °F 82% 30.14 in 10.0 mi Calm Calm - N/A   Scattered Clouds
11:53 AM 78.1 °F - 68.0 °F 71% 30.12 in 10.0 mi South 6.9 mph - N/A   Scattered Clouds
12:53 PM 78.8 °F - 68.0 °F 69% 30.09 in 10.0 mi SSW 8.1 mph - N/A   Scattered Clouds
1:53 PM 80.1 °F 82.3 °F 66.9 °F 64% 30.06 in 10.0 mi SSW 13.8 mph - N/A   Scattered Clouds
2:53 PM 80.1 °F 82.3 °F 66.9 °F 64% 30.06 in 10.0 mi WSW 9.2 mph - N/A   Scattered Clouds
3:53 PM 79.0 °F - 66.9 °F 66% 30.04 in 10.0 mi WSW 9.2 mph - N/A   Partly Cloudy
4:53 PM 77.0 °F - 68.0 °F 74% 30.04 in 10.0 mi WSW 10.4 mph - N/A   Partly Cloudy
5:53 PM 75.0 °F - 66.9 °F 76% 30.04 in 10.0 mi WSW 9.2 mph - N/A   Partly Cloudy
6:53 PM 73.0 °F - 66.9 °F 81% 30.04 in 10.0 mi SW 8.1 mph - N/A   Clear
7:53 PM 72.0 °F - 66.9 °F 84% 30.06 in 10.0 mi West 3.5 mph - N/A   Clear
8:53 PM 71.1 °F - 66.9 °F 87% 30.06 in 10.0 mi SW 3.5 mph - N/A   Clear
9:53 PM 71.1 °F - 66.9 °F 87% 30.05 in 10.0 mi WSW 3.5 mph - N/A   Clear
10:41 PM 69.8 °F - 66.2 °F 88% 30.05 in 10.0 mi Calm Calm - N/A   Partly Cloudy
10:53 PM 70.0 °F - 66.9 °F 90% 30.05 in 9.0 mi Calm Calm - N/A   Partly Cloudy
11:20 PM 69.8 °F - 66.2 °F 88% 30.05 in 9.0 mi Calm Calm - N/A   Mostly Cloudy
11:53 PM 70.0 °F - 66.9 °F 90% 30.04 in 10.0 mi Calm Calm - N/A   Mostly Cloudy